STARLINK-32841, 62865

Orbit data source: Space-Track

STARLINK-32841, 62865 is a payload satellite owned by SpaceX/Seattle (US) in LEO that was launched on Sat, 01 Feb 2025 UTC via an FALCON 9 launch vehicle from the Air Force Western Test Range (AFWTR). Payload-class satellites include a variety of spacecraft equipped with specific instruments for various scientific and technological missions. These include communications satellites like Starlink; space stations such as the ISS; scientific satellites like the Hubble; Earth observation satellites from companies like Planet Labs, Umbra, and HawkEye 360; GPS; miniature CubeSats for education and research; and military/defense satellites.

Loading next visibility...
Identifier
62865, 2025-022M
Orbit
LEO
Last TLE update
14 hours ago
Origin
Manufacturer
SpaceX/Seattle
Mission
Operational Commercial Communications
Bus & Motor
STARLINK V2M, Unknown motor
Mass
730 kg wet, ~700 kg dry
Launch date (UTC)
2025-02-01 (5 months ago)
Launch vehicle
FALCON 9
Launch site
Air Force Western Test Range (AFWTR)
Object type
Payload
Rocket body
Debris
Shape & HBR
Box + 2 Pan, 29 m
Radar Cross Section
33.884 m², Large (>1 m²)

Expand to show TLE details & history

TLE from 14 hours ago
0 STARLINK-32841
1 62865U 25022M   25181.81159296  .00022652  00000-0  57431-3 0  9996
2 62865  53.1572 220.4792 0001700  80.2789 279.8407 15.39635540 23317
Epoch: 2025-06-30T19:28Z
TLE epoch observation values (Epoch: 2025-06-30T19:28:41.631Z)
Latitude
-0.0001°
Longitude
9.18963°
Altitude
447.891 km
Speed
7.645 km/s
True Right ascension
14h 41m 54s
True Declination
0° 00' 00"
Sunlit
Object was in full shadow at epoch
Visualization orbit readout
Latitude
-52.76404°
Longitude
-72.12336°
Altitude
466.557 km
Speed
7.632 km/s
Apparent Right ascension
09h 00m 23s
Apparent Declination
-46° 26' 46"
Sunlit
Object is in daylight
Visualization observer readout
Local Sidereal Time
20:46:35
Azimuth
199.888° SSW
Elevation
-83.005°
Doppler factor
1
Orbital elements
Apogee altitude
448.604 km
Perigee altitude
446.284 km
Semi-major axis
6,825.581 km
Eccentricity
0.00017
Inclination
53.1572°
RAAN
220.4792°
Arg. of periapsis
80.2789°
True anomaly
Unknown
Mean anomaly
279.8407°
Eccentric anomaly
Unknown
Mean motion
3.84887 °/min
Orbital period
93.53 mins
BSTAR
0.00057431
Loading maneuver chart data...
Loading SW <> Apogee altitude chart data...
Loading historical data...
Loading historical data...
Loading historical data...
Loading historical data...
Loading historical data...
Loading historical data...
Loading historical data...

STARLINK-32841 Visibility forecast

Observer location: undefined°, undefined°

Span
Click to sort rows by Start time (UTC) header in descending order
Start Az.
Max El. time (UTC)
Max El. Az.
Max El.
End time (UTC)
End Az.
4 mins2025-07-01 11:33:21.635Z346.04° N2025-07-01 11:34:21.635Z18.618° NNE31.06°2025-07-01 11:37:21.635Z99.33° ESE
4 mins2025-07-01 13:10:21.635Z265.264° W2025-07-01 13:11:21.635Z242.268° WSW21.088°2025-07-01 13:14:21.635Z178.115° S
4 mins2025-07-02 04:22:21.635Z174.699° S2025-07-02 04:23:21.635Z148.14° SSE25.995°2025-07-02 04:26:21.635Z74.158° E
4 mins2025-07-02 05:59:21.635Z280.763° WNW2025-07-02 06:01:21.635Z339.765° N26.965°2025-07-02 06:03:21.635Z25.407° NE
|